Location: Deurze
(52.9838°N, 6.6090°E)
Time: 18:28:30
(UTC+00:00)

Cosmos 841 Rocket - Pass Details

Date: 11 March 2026
Orbit: 742 x 767 km, 74.0° (Epoch: 20 April)

Event Time Altitude Azimuth Distance (km) Brightness Sun altitude
Rises 19:20:59 0° 336° (NNW) 3,199 7.3 -17.2°
Reaches altitude 10° 19:23:32 10° 346° (NNW) 2,274 6.4 -17.6°
Maximum altitude 19:28:16 35° 52° (NE) 1,194 4.2 -18.3°
Enters shadow 19:29:31 31° 82° (E) 1,301 4.2 -18.5°
